{"data":{"norad_id":58772,"epoch":"2026-09-20T12:29:41.236224Z","epoch_age_seconds":150728,"freshness":"FRESH","line1":"1 58772U 24011H   26263.52061616  .00000258  00000+0  18762-4 0  9995","line2":"2 58772  53.1598 185.5955 0001012  81.5916 278.5202 15.34393432150137","mean_motion":15.34393432,"eccentricity":0.0001012,"inclination_deg":53.1598,"raan_deg":185.5955,"arg_perigee_deg":81.5916,"mean_anomaly_deg":278.5202,"bstar":1.8762e-5,"rev_number":15013,"period_min":93.848159798432,"perigee_km":462.03046674899,"apogee_km":463.41505676477,"semimajor_km":6840.8597617569,"source":"CELESTRAK","updated_at":"2026-09-21T09:00:33.957866Z"}}